Content
SEND FEEDBACK

Daily
Averages
Monthly
Summary
United States of America

DEXTER, MISSOURI


Home > North America > United States > Missouri
Elevation: 303 feet     Latitude: 36 46N     Longitude: 089 56W

WEATHER
 
SELECT A DAY
Number of Records: 212,591;   Date Range: 1/1/95 - 12/16/14
 
SHARE

PRINT THIS DATA

[ ← Previous Day ]
WEATHER ALMANAC - NOVEMBER 22, 2013
[ Next Day → ]
[ °C ]   °F
Weather ElementAverageHighLow
Temperature49.7 °F55.9 °F (12:43 am)39.9 °F (11:53 pm)
Dewpoint42.6 °F52 °F (12:43 am)30 °F (11:53 pm)
Humidity76.7 %87 % (12:43 am)67 % (10:53 pm)
Barometer30.32 in30.48 in (11:53 pm)30.18 in (12:43 am)
Wind Speed9.8 mph16.1 mph (7:53 am)
Wind Gust26.5 mph (7:53 am)
Weather ElementAverage
Visibility8.7 mi
Wind DirectionWSW (260.6 °)

Weather ElementTotal
Precipitation0.11 in
Heating Degree Days17.1 (Base 65)
Averaged from 32 records on November 22, 2013
WEATHER CONDITIONS BREAKOUT
WIND DIRECTION BREAKOUT
WEATHER BY HOUR - NOVEMBER 22, 2013
[ °C ]   °F
Local TimeTemperatureDewpointHumidityBarometerVisibilityWind DirectionWind SpeedGust SpeedPrecipitationEventsConditions
12:43 AM55.9 °F52.0 °F87 %30.18 in3.0 miNW (320°)5.8 mph0.02 inRainLight Rain
12:53 AM55.9 °F52.0 °F87 %30.19 in3.0 miNW (310°)5.8 mph0.02 inOvercast
12:57 AM55.9 °F52.0 °F87 %30.18 in2.5 miNW (320°)6.9 mph0.00 inRainLight Rain
1:26 AM55.9 °F52.0 °F87 %30.19 in2.5 miNNW (330°)8.1 mph0.02 inRainLight Rain
1:36 AM55.9 °F52.0 °F87 %30.19 in4.0 miNNW (340°)5.8 mph0.02 inRainLight Rain
1:53 AM55.9 °F51.1 °F84 %30.19 in4.0 miNNW (340°)4.6 mph0.03 inRainLight Rain
2:53 AM55.9 °F51.1 °F84 %30.19 in10.0 miNorth (360°)5.8 mph0.00 inOvercast
3:53 AM55.0 °F50.0 °F83 %30.19 in10.0 miNorth (360°)3.5 mph0.00 inOvercast
4:03 AM55.0 °F50.0 °F83 %30.20 in10.0 miNNW (330°)5.8 mphOvercast
4:36 AM55.0 °F50.0 °F83 %30.21 in10.0 miNorth (350°)3.5 mphOvercast
4:53 AM55.0 °F50.0 °F83 %30.22 in10.0 miNNW (340°)4.6 mphOvercast
5:06 AM55.0 °F50.0 °F83 %30.22 in10.0 miNNW (340°)4.6 mphOvercast
5:14 AM55.0 °F50.0 °F83 %30.22 in10.0 miNNW (330°)4.6 mphOvercast
5:53 AM55.0 °F48.9 °F80 %30.24 in10.0 miNorth (350°)5.8 mphOvercast
6:53 AM55.0 °F48.0 °F77 %30.27 in10.0 miNorth (350°)10.4 mphOvercast
7:53 AM52.0 °F45.0 °F77 %30.30 in10.0 miNorth (350°)16.1 mph26.5 mphOvercast
8:53 AM51.1 °F43.0 °F74 %30.34 in10.0 miNorth (10°)13.8 mph24.2 mphOvercast
9:53 AM48.9 °F41.0 °F74 %30.38 in10.0 miNorth (360°)10.4 mphOvercast
10:53 AM48.0 °F39.0 °F71 %30.39 in10.0 miNorth (360°)12.7 mph20.7 mphOvercast
11:53 AM46.9 °F37.9 °F71 %30.39 in10.0 miNNW (330°)13.8 mphOvercast
12:53 PM46.0 °F36.0 °F68 %30.38 in10.0 miNorth (350°)13.8 mphOvercast
1:53 PM46.0 °F36.0 °F68 %30.38 in10.0 miNorth (350°)12.7 mphOvercast
2:53 PM45.0 °F35.1 °F68 %30.38 in10.0 miNorth (360°)12.7 mphOvercast
3:53 PM45.0 °F35.1 °F68 %30.42 in10.0 miNNW (340°)12.7 mphOvercast
4:53 PM43.0 °F34.0 °F71 %30.42 in10.0 miNorth (10°)16.1 mph23.0 mphOvercast
5:53 PM42.1 °F33.1 °F70 %30.45 in10.0 miNorth (360°)15.0 mph23.0 mphOvercast
6:53 PM42.1 °F33.1 °F70 %30.45 in10.0 miNorth (10°)13.8 mphOvercast
7:53 PM41.0 °F32.0 °F70 %30.45 in10.0 miNorth (10°)11.5 mphOvercast
8:53 PM41.0 °F32.0 °F70 %30.47 in10.0 miNNE (20°)13.8 mphOvercast
9:53 PM41.0 °F32.0 °F70 %30.47 in10.0 miNorth (10°)11.5 mphOvercast
10:53 PM41.0 °F30.9 °F67 %30.47 in10.0 miNNE (20°)13.8 mphOvercast
11:53 PM39.9 °F30.0 °F68 %30.48 in10.0 miNNE (20°)13.8 mph17.3 mphOvercast
Hourly data recorded from KPOF, located miles away from Dexter, Missouri







STORIES FROM OUR PARTNERS